Historique des stations

Station météo de Chassignolles

Altitude de la station : 290 m







Données météorologiques pour le 18/05/2022
Date
Heure
Températures Humidité Point de rosée Vitesse
du vent
Direction Rafales Windchill Pression Pluviométrie
Cumul
Date
Heure
Températures Humidité Point de rosée Vitesse
du vent
Direction Rafales Windchill Pression Pluviométrie
Cumul
18/05/2022 15:3028.5 °C55 %18.3 °C6 km/hE18 km/h28.3 1017 hPa-
18/05/2022 15:2928.4 °C55 %18.3 °C10 km/hESE26 km/h28.3 1017 hPa-
18/05/2022 15:1528.3 °C54 %18.3 °C3 km/hESE18 km/h28.3 1017 hPa-
18/05/2022 15:1428.3 °C53 %17.8 °C3 km/hNNE26 km/h28.3 1017 hPa-
18/05/2022 15:0028.3 °C54 %17.8 °C14 km/hESE19 km/h28.3 1018 hPa-
18/05/2022 14:5928.3 °C54 %17.8 °C13 km/hESE26 km/h28.3 1018 hPa-
18/05/2022 14:4528.4 °C53 %17.8 °C8 km/hESE16 km/h28.3 1018 hPa-
18/05/2022 14:4428.3 °C54 %18.3 °C5 km/hSE26 km/h28.3 1018 hPa-
18/05/2022 14:3027.6 °C57 %18.3 °C19 km/hESE19 km/h26.7 1018 hPa-
18/05/2022 14:2927.6 °C57 %18.3 °C6 km/hSSE26 km/h27.8 1018 hPa-
18/05/2022 14:1527.5 °C56 %17.8 °C13 km/hSSE19 km/h27.8 1018 hPa-
18/05/2022 14:1427.4 °C57 %18.3 °C18 km/hESE23 km/h26.1 1018 hPa-
18/05/2022 14:0027.0 °C57 %17.8 °C5 km/hE23 km/h27.2 1018 hPa-
18/05/2022 13:5926.9 °C59 %18.3 °C6 km/hENE23 km/h27.2 1018 hPa-
18/05/2022 13:4626.9 °C56 %17.2 °C11 km/hSSE19 km/h26.1 1019 hPa-
18/05/2022 13:4426.8 °C57 %17.8 °C6 km/hESE21 km/h26.7 1019 hPa-
18/05/2022 13:3027.0 °C56 %17.2 °C13 km/hE19 km/h27.2 1019 hPa-
18/05/2022 13:2927.1 °C56 %17.2 °C10 km/hS21 km/h27.2 1019 hPa-
18/05/2022 13:1626.6 °C56 %17.2 °C6 km/hENE19 km/h26.7 1019 hPa-
18/05/2022 13:1426.4 °C59 %17.8 °C6 km/hESE19 km/h26.7 1019 hPa-
18/05/2022 13:0026.2 °C58 %17.2 °C10 km/hESE18 km/h26.1 1019 hPa-
18/05/2022 12:5926.2 °C57 %17.2 °C5 km/hE19 km/h26.1 1019 hPa-
18/05/2022 12:4625.9 °C58 %16.7 °C6 km/hSE16 km/h26.1 1020 hPa-
18/05/2022 12:4525.9 °C57 %16.7 °C6 km/hENE19 km/h26.1 1020 hPa-
18/05/2022 12:3125.4 °C59 %16.7 °C10 km/hESE19 km/h25.6 1019 hPa-
18/05/2022 12:3025.4 °C58 %16.7 °C13 km/hESE19 km/h25.0 1019 hPa-
18/05/2022 12:1625.4 °C62 %17.8 °C13 km/hESE16 km/h25.0 1020 hPa-
18/05/2022 12:1525.4 °C60 %17.2 °C6 km/hENE19 km/h25.6 1020 hPa-
18/05/2022 12:0124.8 °C62 %17.2 °C5 km/hE19 km/h25.0 1020 hPa-
18/05/2022 12:0024.9 °C62 %17.2 °C11 km/hENE19 km/h24.4 1020 hPa-
18/05/2022 11:4624.4 °C64 %17.2 °C11 km/hE18 km/h23.9 1020 hPa-
18/05/2022 11:4524.3 °C64 %17.2 °C13 km/hESE18 km/h23.9 1020 hPa-
18/05/2022 11:3124.3 °C65 %17.2 °C13 km/hNE18 km/h23.9 1020 hPa-
18/05/2022 11:3024.3 °C67 %17.8 °C8 km/hE14 km/h24.4 1020 hPa-
18/05/2022 11:1623.7 °C68 %17.2 °C3 km/hNE14 km/h23.9 1020 hPa-
18/05/2022 11:1523.7 °C68 %17.2 °C11 km/hE14 km/h23.3 1020 hPa-
18/05/2022 11:0023.1 °C68 %16.7 °C3 km/hNE13 km/h23.3 1020 hPa-
18/05/2022 10:5923.2 °C68 %17.2 °C5 km/hENE14 km/h23.3 1020 hPa-
18/05/2022 10:4522.8 °C71 %17.2 °C2 km/hENE11 km/h22.8 1020 hPa-
18/05/2022 10:4422.8 °C70 %17.2 °C2 km/hE14 km/h22.8 1020 hPa-
18/05/2022 10:3022.6 °C68 %16.1 °C5 km/hE13 km/h22.8 1020 hPa-
18/05/2022 10:2922.6 °C69 %16.7 °C3 km/hENE14 km/h22.8 1020 hPa-
18/05/2022 10:1522.1 °C70 %16.7 °C2 km/hESE10 km/h22.2 1020 hPa-
18/05/2022 10:1422.1 °C70 %16.1 °C2 km/hENE14 km/h22.2 1021 hPa-
18/05/2022 10:0021.5 °C70 %15.6 °C2 km/hE14 km/h21.7 1021 hPa-
18/05/2022 09:5921.4 °C70 %15.6 °C5 km/hNNE14 km/h21.7 1020 hPa-
18/05/2022 09:4520.9 °C72 %15.6 °C3 km/hENE10 km/h21.1 1020 hPa-
18/05/2022 09:4420.9 °C72 %15.6 °C3 km/hNE11 km/h21.1 1021 hPa-
18/05/2022 09:3020.7 °C72 %15.6 °C5 km/hESE11 km/h20.6 1021 hPa-
18/05/2022 09:2920.7 °C72 %15.6 °C2 km/hE10 km/h20.6 1021 hPa-
18/05/2022 09:1520.5 °C74 %15.6 °C5 km/hNNE6 km/h20.6 1021 hPa-
18/05/2022 09:1420.4 °C74 %15.6 °C3 km/hNE10 km/h20.6 1021 hPa-
18/05/2022 09:0020.1 °C75 %15.6 °C5 km/hNE10 km/h20.0 1021 hPa-
18/05/2022 08:5920.1 °C75 %15.6 °C8 km/hNNE10 km/h20.0 1021 hPa-
18/05/2022 08:4519.1 °C78 %15.0 °C-ESE5 km/h18.9 1021 hPa-
18/05/2022 08:4419.0 °C78 %15.0 °C2 km/hESE10 km/h18.9 1021 hPa-
18/05/2022 08:3017.9 °C82 %15.0 °C-SE3 km/h17.8 1021 hPa-
18/05/2022 08:2917.8 °C82 %15.0 °C2 km/hSE10 km/h17.8 1021 hPa-
18/05/2022 08:1516.7 °C86 %14.4 °C3 km/hSE5 km/h16.7 1021 hPa-
18/05/2022 08:1416.6 °C85 %13.9 °C3 km/hSE10 km/h16.7 1021 hPa-
18/05/2022 08:0015.7 °C87 %13.9 °C2 km/hS5 km/h15.6 1021 hPa-
18/05/2022 07:5915.7 °C87 %13.3 °C2 km/hS10 km/h15.6 1021 hPa-
18/05/2022 07:4514.7 °C89 %12.8 °C-N3 km/h14.4 1021 hPa-
18/05/2022 07:4414.7 °C89 %12.8 °C2 km/hN10 km/h14.4 1021 hPa-
18/05/2022 07:3013.9 °C90 %12.2 °C3 km/hS5 km/h13.9 1021 hPa-
18/05/2022 07:2913.9 °C90 %12.2 °C2 km/hS10 km/h13.9 1021 hPa-
18/05/2022 07:1513.3 °C90 %11.7 °C2 km/hSO3 km/h13.3 1021 hPa-
18/05/2022 07:1413.3 °C90 %11.7 °C2 km/hSO10 km/h13.3 1021 hPa-
18/05/2022 07:0013.3 °C91 %11.7 °C3 km/hSO5 km/h13.3 1021 hPa-
18/05/2022 06:5913.2 °C91 %11.7 °C2 km/hSO10 km/h13.3 1021 hPa-
18/05/2022 06:4512.8 °C90 %11.1 °C3 km/hS5 km/h12.8 1020 hPa-
18/05/2022 06:4412.8 °C90 %11.1 °C5 km/hS10 km/h12.8 1020 hPa-
18/05/2022 06:3013.1 °C89 %11.1 °C-N3 km/h13.3 1020 hPa-
18/05/2022 06:2913.1 °C89 %11.7 °C2 km/hN10 km/h13.3 1020 hPa-
18/05/2022 06:1513.4 °C90 %11.7 °C2 km/hSSO3 km/h13.3 1020 hPa-
18/05/2022 06:1413.4 °C90 %11.7 °C3 km/hSSO10 km/h13.3 1020 hPa-
18/05/2022 06:0013.4 °C89 %11.7 °C2 km/hS3 km/h13.3 1020 hPa-
18/05/2022 05:5913.4 °C89 %11.7 °C2 km/hS10 km/h13.3 1020 hPa-
18/05/2022 05:4513.8 °C89 %12.2 °C-S10 km/h13.9 1020 hPa-
18/05/2022 05:3114.1 °C89 %12.2 °C2 km/hSO3 km/h13.9 1020 hPa-
18/05/2022 05:3014.1 °C89 %12.2 °C-SO10 km/h13.9 1020 hPa-
18/05/2022 05:1514.3 °C88 %12.2 °C2 km/hSSE10 km/h14.4 1020 hPa-
18/05/2022 05:0114.6 °C87 %12.8 °C2 km/hSSE3 km/h14.4 1020 hPa-
18/05/2022 05:0014.6 °C87 %12.8 °C3 km/hSSE10 km/h14.4 1020 hPa-
18/05/2022 04:4614.7 °C87 %12.8 °C2 km/hSSE3 km/h15.0 1020 hPa-
18/05/2022 04:4514.8 °C86 %12.8 °C2 km/hSSE10 km/h15.0 1020 hPa-
18/05/2022 04:3115.2 °C86 %12.8 °C2 km/hSSE3 km/h15.0 1020 hPa-
18/05/2022 04:3015.3 °C86 %12.8 °C3 km/hSSE10 km/h15.6 1020 hPa-
18/05/2022 04:1615.3 °C86 %12.8 °C2 km/hSSE3 km/h15.6 1020 hPa-
18/05/2022 04:1515.3 °C86 %13.3 °C-SSE10 km/h15.6 1020 hPa-
18/05/2022 04:0115.4 °C85 %12.8 °C-SSE2 km/h15.6 1020 hPa-
18/05/2022 04:0015.5 °C85 %12.8 °C-SSE10 km/h15.6 1020 hPa-
18/05/2022 03:4615.6 °C84 %12.8 °C-SSE3 km/h15.6 1020 hPa-
18/05/2022 03:4515.7 °C84 %12.8 °C-SSE10 km/h15.6 1020 hPa-
18/05/2022 03:3116.1 °C83 %13.3 °C-SSE3 km/h16.1 1020 hPa-
18/05/2022 03:3016.1 °C83 %13.3 °C-SSE10 km/h16.1 1020 hPa-
18/05/2022 03:1616.6 °C82 %13.3 °C-SSE2 km/h16.7 1020 hPa-
18/05/2022 03:1516.6 °C81 %13.3 °C-SSE10 km/h16.7 1020 hPa-
18/05/2022 03:0017.3 °C79 %13.9 °C2 km/hSSE3 km/h17.2 1020 hPa-
18/05/2022 02:5917.3 °C79 %13.9 °C-SSE10 km/h17.2 1020 hPa-
18/05/2022 02:4518.0 °C77 %13.9 °C2 km/hSE3 km/h17.8 1020 hPa-
18/05/2022 02:4418.0 °C77 %13.9 °C2 km/hSE10 km/h17.8 1020 hPa-
18/05/2022 02:3018.4 °C76 %13.9 °C2 km/hOSO3 km/h18.3 1020 hPa-
18/05/2022 02:2918.4 °C76 %13.9 °C-OSO10 km/h18.3 1020 hPa-
18/05/2022 02:1518.6 °C75 %13.9 °C2 km/hOSO5 km/h18.9 1020 hPa-
18/05/2022 02:1418.6 °C75 %13.9 °C-O10 km/h18.9 1020 hPa-
18/05/2022 02:0019.1 °C73 %13.9 °C-SO3 km/h18.9 1020 hPa-
18/05/2022 01:5919.1 °C73 %14.4 °C2 km/hSO10 km/h18.9 1020 hPa-
18/05/2022 01:4519.5 °C72 %14.4 °C3 km/hS6 km/h19.4 1020 hPa-
18/05/2022 01:4419.6 °C72 %14.4 °C2 km/hONO10 km/h19.4 1020 hPa-
18/05/2022 01:3019.8 °C72 %14.4 °C-O6 km/h20.0 1020 hPa-
18/05/2022 01:2919.8 °C71 %14.4 °C3 km/hO10 km/h20.0 1020 hPa-
18/05/2022 01:1519.8 °C71 %14.4 °C2 km/hO10 km/h20.0 1020 hPa-
18/05/2022 01:1419.8 °C71 %14.4 °C-O10 km/h20.0 1020 hPa-
18/05/2022 01:0019.9 °C71 %14.4 °C2 km/hN6 km/h20.0 1020 hPa-
18/05/2022 00:5919.9 °C71 %14.4 °C-O10 km/h20.0 1020 hPa-
18/05/2022 00:4520.2 °C70 %14.4 °C5 km/hONO10 km/h20.0 1020 hPa-
18/05/2022 00:4420.2 °C70 %14.4 °C2 km/hO10 km/h20.0 1020 hPa-
18/05/2022 00:3020.4 °C69 %14.4 °C-OSO6 km/h20.6 1019 hPa-
18/05/2022 00:2920.4 °C69 %14.4 °C3 km/hO10 km/h20.6 1020 hPa-
18/05/2022 00:1520.8 °C68 %14.4 °C-OSO5 km/h21.1 1019 hPa-
18/05/2022 00:1420.9 °C68 %15.0 °C2 km/hO6 km/h21.1 1019 hPa-
18/05/2022 00:0121.2 °C67 %15.0 °C2 km/hOSO8 km/h21.1 1019 hPa-


Minima :

Température : 12.8 °C
Humidité : 53 %
Point de rosée : 11.1 °C
Vent moyen : 2 km/h
Windchill : 12.8
Pression atm. : 1017 hPa
Maxima :

Température : 28.5 °C
Humidité : 91 %
Point de rosée : 18.3 °C
Vent moyen : 19 km/h
Windchill : 28.3
Pression atm. : 1021 hPa
Rafales max : 26 km/h
Cumul de pluie sur 24H : 0 mm

Chassignolles est une commune du département Indre (36).
La station météorologique du réseau de l'association la plus proche de Chassignolles est celle de Beddes



Icône Facebook Association Météo Centre Icône Twitter Association Météo Centre Icône Chaîne Youtube Association Météo Centre Icône contact Association Météo Centre Icône Insta Association Météo Centre